Date String (YYYY-MM-DD hh:mm:ss) UTC,Instrument flags,Ambient pressure (hPa),Sample flow (lpm),Bypass flow (lpm),Sample temperature (°C),Ambient temperature (°C),ASC tube jacket temperature (°C),LED temperature (°C),Box temperature (°C),Sample RH (%),Span deviation,Mass concentration (μg/m³),Mass concentration (μg/m³),Mass concentration (μg/m³)
DateTimeUTC,F1_M11,P_M11,Q1_M11,Q2_M11,T1_M11,T2_M11,T3_M11,T4_M11,T5_M11,U1_M11,ZSPAN_M11,X0_M11,X2_M11,X1_M11
2022-05-17 14:00:00,,0822.5,5.00,0.00,30.3,29.1,00.0,39.3,32.1,14.9,0000.0,0015.67,0004.73,0003.58
2022-05-17 14:01:00,,0822.5,5.00,0.00,30.3,29.2,00.0,39.3,32.1,14.9,0000.0,0015.28,0004.81,0003.59
2022-05-17 14:02:00,,0822.5,5.00,0.00,30.3,29.2,00.0,39.3,32.1,14.7,0000.0,0014.68,0004.86,0003.59
2022-05-17 14:03:00,,0822.5,5.02,0.00,30.3,29.2,00.0,39.3,32.1,14.5,0000.0,0013.20,0004.81,0003.59
2022-05-17 14:04:00,,0822.6,5.01,0.00,30.3,29.2,00.0,39.3,32.1,14.4,0000.0,0012.94,0004.81,0003.59
2022-05-17 14:05:00,,0822.5,4.99,0.00,30.3,29.2,00.0,39.3,32.1,15.1,0000.0,0013.17,0004.86,0003.59
2022-05-17 14:06:00,,0822.6,5.00,0.00,30.4,29.3,00.0,39.3,32.2,15.9,0000.0,0013.24,0004.92,0003.60
2022-05-17 14:07:00,,0822.6,5.01,0.00,30.4,29.3,00.0,39.3,32.2,15.9,0000.0,0013.92,0004.97,0003.60
2022-05-17 14:08:00,,0822.6,5.01,0.00,30.4,29.3,00.0,39.4,32.2,15.9,0000.0,0016.12,0005.03,0003.61
2022-05-17 14:09:00,,0822.6,4.99,0.00,30.4,29.1,00.0,39.4,32.2,15.5,0000.0,0017.78,0005.13,0003.63
2022-05-17 14:10:00,,0822.5,5.00,0.00,30.4,27.1,00.0,39.3,31.8,15.2,0000.0,0017.72,0005.22,0003.64
2022-05-17 14:11:00,,0822.5,5.01,0.00,30.2,26.1,00.0,39.3,31.6,15.0,0000.0,0016.97,0005.25,0003.65
2022-05-17 14:12:00,,0822.5,5.00,0.00,30.1,26.4,00.0,39.2,31.5,15.3,0000.0,0017.01,0005.28,0003.66
2022-05-17 14:13:00,,0822.5,5.00,0.00,30.0,26.8,00.0,39.2,31.5,15.3,0000.0,0017.49,0005.28,0003.68
2022-05-17 14:14:00,,0822.5,4.99,0.00,30.0,27.1,00.0,39.2,31.5,15.6,0000.0,0017.87,0005.28,0003.70
2022-05-17 14:15:00,,0822.5,5.01,0.00,30.0,27.5,00.0,39.1,31.6,15.3,0000.0,0019.09,0005.26,0003.72
2022-05-17 14:16:00,,0822.5,5.00,0.00,30.0,27.7,00.0,39.1,31.6,15.3,0000.0,0019.15,0005.27,0003.73
2022-05-17 14:17:00,,0822.5,4.99,0.00,30.0,28.0,00.0,39.1,31.7,15.3,0000.0,0019.33,0005.25,0003.74
2022-05-17 14:18:00,,0822.5,5.00,0.00,30.0,28.1,00.0,39.1,31.7,15.7,0000.0,0018.81,0005.25,0003.74
2022-05-17 14:19:00,,0822.5,5.01,0.00,30.0,28.3,00.0,39.1,31.7,15.5,0000.0,0016.64,0005.22,0003.72
2022-05-17 14:20:00,,0822.5,5.00,0.00,30.0,28.4,00.0,39.1,31.7,15.4,0000.0,0015.45,0005.12,0003.71
2022-05-17 14:21:00,,0822.5,5.00,0.00,30.0,28.5,00.0,39.1,31.8,15.3,0000.0,0015.12,0005.07,0003.70
2022-05-17 14:22:00,,0822.5,5.00,0.00,30.0,28.6,00.0,39.1,31.8,15.6,0000.0,0015.68,0005.06,0003.70
2022-05-17 14:23:00,,0822.6,5.00,0.00,30.0,28.7,00.0,39.1,31.8,16.1,0000.0,0016.19,0005.00,0003.69
2022-05-17 14:24:00,,0822.6,5.00,0.00,30.0,28.8,00.0,39.1,31.8,15.8,0000.0,0016.45,0005.05,0003.68
2022-05-17 14:25:00,,0822.5,5.00,0.00,30.1,28.8,00.0,39.1,31.8,16.2,0000.0,0016.79,0005.07,0003.67
2022-05-17 14:26:00,,0822.5,5.00,0.00,30.1,28.9,00.0,39.1,31.9,16.2,0000.0,0015.46,0005.08,0003.66
2022-05-17 14:27:00,,0822.5,4.99,0.00,30.1,28.9,00.0,39.1,31.9,16.4,0000.0,0015.15,0005.07,0003.66
2022-05-17 14:28:00,,0822.6,4.99,0.00,30.1,29.0,00.0,39.1,31.9,16.3,0000.0,0015.29,0005.07,0003.66
2022-05-17 14:29:00,,0822.6,5.00,0.00,30.1,29.0,00.0,39.1,31.9,17.0,0000.0,0016.63,0005.05,0003.67
2022-05-17 14:30:00,,0822.6,5.02,0.00,30.1,29.0,00.0,39.1,32.0,16.8,0000.0,0017.84,0005.08,0003.67
2022-05-17 14:31:00,,0822.6,5.00,0.00,30.2,29.1,00.0,39.1,32.0,17.0,0000.0,0017.73,0005.11,0003.67
2022-05-17 14:32:00,,0822.7,5.00,0.00,30.2,29.1,00.0,39.2,32.0,16.9,0000.0,0017.93,0005.13,0003.68
2022-05-17 14:33:00,,0822.7,5.01,0.00,30.2,28.6,00.0,39.1,32.0,16.7,0000.0,0019.08,0005.17,0003.69
2022-05-17 14:34:00,,0822.6,5.00,0.00,30.1,26.6,00.0,39.1,31.6,17.1,0000.0,0020.21,0005.23,0003.71
2022-05-17 14:35:00,,0822.6,5.00,0.00,30.0,25.7,00.0,39.1,31.4,17.1,0000.0,0021.18,0005.28,0003.72
2022-05-17 14:36:00,,0822.6,5.00,0.00,29.9,26.1,00.0,39.0,31.3,16.9,0000.0,0021.47,0005.36,0003.73
2022-05-17 14:37:00,,0822.7,5.00,0.00,29.8,26.5,00.0,39.0,31.3,16.9,0000.0,0022.44,0005.42,0003.74
2022-05-17 14:38:00,,0822.7,4.99,0.00,29.8,26.9,00.0,39.0,31.3,17.0,0000.0,0023.07,0005.47,0003.74
2022-05-17 14:39:00,,0822.7,5.01,0.00,29.8,27.2,00.0,38.9,31.4,17.0,0000.0,0023.01,0005.49,0003.73
2022-05-17 14:40:00,,0822.7,4.99,0.00,29.8,27.5,00.0,38.9,31.5,17.1,0000.0,0022.22,0005.49,0003.73
2022-05-17 14:41:00,,0822.6,5.00,0.00,29.8,27.8,00.0,38.9,31.5,16.7,0000.0,0021.34,0005.51,0003.72
2022-05-17 14:42:00,,0822.6,5.02,0.00,29.8,28.0,00.0,38.9,31.5,17.2,0000.0,0020.68,0005.46,0003.72
2022-05-17 14:43:00,,0822.6,4.99,0.00,29.8,28.1,00.0,38.9,31.5,17.6,0000.0,0020.99,0005.46,0003.71
2022-05-17 14:44:00,,0822.6,5.01,0.00,29.8,28.3,00.0,38.9,31.6,17.7,0000.0,0019.87,0005.47,0003.70
2022-05-17 14:45:00,,0822.6,5.01,0.00,29.8,28.4,00.0,38.9,31.6,16.9,0000.0,0019.93,0005.52,0003.69
2022-05-17 14:46:00,,0822.6,5.00,0.00,29.8,28.5,00.0,38.9,31.6,17.0,0000.0,0019.19,0005.50,0003.69
2022-05-17 14:47:00,,0822.6,5.00,0.00,29.8,28.6,00.0,38.9,31.7,16.9,0000.0,0018.98,0005.44,0003.69
2022-05-17 14:48:00,,0822.6,5.01,0.00,29.9,28.7,00.0,38.9,31.7,16.8,0000.0,0018.35,0005.44,0003.69
2022-05-17 14:49:00,,0822.6,5.00,0.00,29.9,28.7,00.0,38.9,31.7,17.0,0000.0,0018.47,0005.45,0003.69
2022-05-17 14:50:00,,0822.7,5.01,0.00,29.9,28.8,00.0,38.9,31.7,16.6,0000.0,0018.28,0005.41,0003.68
2022-05-17 14:51:00,,0822.6,5.01,0.00,29.9,28.8,00.0,38.9,31.7,16.4,0000.0,0018.83,0005.39,0003.68
2022-05-17 14:52:00,,0822.6,4.99,0.00,30.0,28.9,00.0,38.9,31.8,15.7,0000.0,0018.82,0005.34,0003.65
2022-05-17 14:53:00,,0822.6,5.00,0.00,30.0,28.9,00.0,39.0,31.8,15.8,0000.0,0020.47,0005.35,0003.63
2022-05-17 14:54:00,,0822.6,5.01,0.00,30.0,28.8,00.0,39.0,31.9,16.0,0000.0,0020.25,0005.35,0003.62
2022-05-17 14:55:00,,0822.6,5.00,0.00,30.0,27.1,00.0,38.9,31.6,15.8,0000.0,0020.62,0005.32,0003.60
2022-05-17 14:56:00,,0822.6,4.99,0.00,29.8,25.6,00.0,38.9,31.2,16.0,0000.0,0020.09,0005.19,0003.58
2022-05-17 14:57:00,,0822.6,5.00,0.00,29.8,25.9,00.0,38.9,31.2,16.3,0000.0,0019.13,0005.12,0003.55
2022-05-17 14:58:00,,0822.6,5.00,0.00,29.7,26.3,00.0,38.8,31.1,16.1,0000.0,0019.73,0005.08,0003.54
2022-05-17 14:59:00,,0822.6,5.00,0.00,29.6,26.7,00.0,38.8,31.2,16.3,0000.0,0020.15,0005.02,0003.51
